Year,Month,Day,Hour,Minute,Value (Times are PST for temperature in C)
2008,02,13,00,00,5.50
2008,02,13,00,01,5.50
2008,02,13,00,02,5.60
2008,02,13,00,03,5.60
2008,02,13,00,04,5.60
2008,02,13,00,05,5.50
2008,02,13,00,06,5.50
2008,02,13,00,07,5.50
2008,02,13,00,08,5.50
2008,02,13,00,09,5.50
2008,02,13,00,10,5.40
2008,02,13,00,11,5.40
2008,02,13,00,12,5.40
2008,02,13,00,13,5.30
2008,02,13,00,14,5.30
2008,02,13,00,15,5.30
2008,02,13,00,16,5.30
2008,02,13,00,17,5.30
2008,02,13,00,18,5.40
2008,02,13,00,19,5.40
2008,02,13,00,20,5.40
2008,02,13,00,21,5.30
2008,02,13,00,22,5.40
2008,02,13,00,23,5.40
2008,02,13,00,24,5.50
2008,02,13,00,25,5.50
2008,02,13,00,26,5.50
2008,02,13,00,27,5.50
2008,02,13,00,28,5.40
2008,02,13,00,29,5.40
2008,02,13,00,30,5.40
2008,02,13,00,31,5.40
2008,02,13,00,32,5.40
2008,02,13,00,33,5.40
2008,02,13,00,34,5.40
2008,02,13,00,35,5.40
2008,02,13,00,36,5.30
2008,02,13,00,37,5.30
2008,02,13,00,38,5.30
2008,02,13,00,39,5.30
2008,02,13,00,40,5.30
2008,02,13,00,41,5.20
2008,02,13,00,42,5.20
2008,02,13,00,43,5.20
2008,02,13,00,44,5.20
2008,02,13,00,45,5.20
2008,02,13,00,46,5.10
2008,02,13,00,47,5.10
2008,02,13,00,48,5.10
2008,02,13,00,49,5.10
2008,02,13,00,50,5.10
2008,02,13,00,51,5.10
2008,02,13,00,52,5.10
2008,02,13,00,53,5.10
2008,02,13,00,54,5.10
2008,02,13,00,55,5.10
2008,02,13,00,56,5.10
2008,02,13,00,57,5.10
2008,02,13,00,58,5.10
2008,02,13,00,59,5.10
2008,02,13,01,00,5.10
2008,02,13,01,01,5.10
2008,02,13,01,02,5.10
2008,02,13,01,03,5.10
2008,02,13,01,04,5.10
2008,02,13,01,05,5.10
2008,02,13,01,06,5.10
2008,02,13,01,07,5.10
2008,02,13,01,08,5.10
2008,02,13,01,09,5.10
2008,02,13,01,10,5.10
2008,02,13,01,11,5.10
2008,02,13,01,12,5.10
2008,02,13,01,13,5.00
2008,02,13,01,14,4.90
2008,02,13,01,15,4.90
2008,02,13,01,16,4.90
2008,02,13,01,17,4.90
2008,02,13,01,18,4.90
2008,02,13,01,19,4.90
2008,02,13,01,20,4.90
2008,02,13,01,21,4.90
2008,02,13,01,22,4.90
2008,02,13,01,23,4.90
2008,02,13,01,24,5.10
2008,02,13,01,25,5.10
2008,02,13,01,26,5.10
2008,02,13,01,27,5.10
2008,02,13,01,28,5.10
2008,02,13,01,29,5.10
2008,02,13,01,30,5.10
2008,02,13,01,31,5.10
2008,02,13,01,32,5.10
2008,02,13,01,33,5.10
2008,02,13,01,34,5.10
2008,02,13,01,35,5.10
2008,02,13,01,36,5.20
2008,02,13,01,37,5.20
2008,02,13,01,38,5.30
2008,02,13,01,39,5.30
2008,02,13,01,40,5.30
2008,02,13,01,41,5.30
2008,02,13,01,42,5.30
2008,02,13,01,43,5.30
2008,02,13,01,44,5.30
2008,02,13,01,45,5.30
2008,02,13,01,46,5.30
2008,02,13,01,47,5.30
2008,02,13,01,48,5.20
2008,02,13,01,49,5.20
2008,02,13,01,50,5.20
2008,02,13,01,51,5.20
2008,02,13,01,52,5.20
2008,02,13,01,53,5.20
2008,02,13,01,54,5.20
2008,02,13,01,55,5.10
2008,02,13,01,56,5.10
2008,02,13,01,57,5.10
2008,02,13,01,58,5.10
2008,02,13,01,59,5.10
2008,02,13,02,00,5.10
2008,02,13,02,01,5.10
2008,02,13,02,02,5.10
2008,02,13,02,03,5.10
2008,02,13,02,04,5.10
2008,02,13,02,05,5.10
2008,02,13,02,06,5.10
2008,02,13,02,07,5.10
2008,02,13,02,08,5.10
2008,02,13,02,09,5.10
2008,02,13,02,10,5.10
2008,02,13,02,11,5.10
2008,02,13,02,12,5.10
2008,02,13,02,13,5.10
2008,02,13,02,14,5.10
2008,02,13,02,15,5.10
2008,02,13,02,16,5.10
2008,02,13,02,17,5.10
2008,02,13,02,18,5.10
2008,02,13,02,19,5.10
2008,02,13,02,20,5.10
2008,02,13,02,21,5.10
2008,02,13,02,22,5.10
2008,02,13,02,23,5.10
2008,02,13,02,24,5.10
2008,02,13,02,25,5.10
2008,02,13,02,26,5.10
2008,02,13,02,27,5.10
2008,02,13,02,28,5.10
2008,02,13,02,29,5.10
2008,02,13,02,30,5.10
2008,02,13,02,31,5.10
2008,02,13,02,32,5.10
2008,02,13,02,33,5.10
2008,02,13,02,34,5.10
2008,02,13,02,35,5.10
2008,02,13,02,36,5.10
2008,02,13,02,37,5.00
2008,02,13,02,38,4.90
2008,02,13,02,39,4.90
2008,02,13,02,40,4.90
2008,02,13,02,41,4.90
2008,02,13,02,42,4.90
2008,02,13,02,43,4.90
2008,02,13,02,44,4.90
2008,02,13,02,45,4.90
2008,02,13,02,46,4.90
2008,02,13,02,47,4.90
2008,02,13,02,48,4.90
2008,02,13,02,49,4.90
2008,02,13,02,50,4.90
2008,02,13,02,51,4.90
2008,02,13,02,52,4.90
2008,02,13,02,53,4.90
2008,02,13,02,54,4.90
2008,02,13,02,55,4.90
2008,02,13,02,56,4.90
2008,02,13,02,57,4.90
2008,02,13,02,58,4.90
2008,02,13,02,59,4.90
2008,02,13,03,00,4.90
2008,02,13,03,01,4.80
2008,02,13,03,02,4.80
2008,02,13,03,03,4.80
2008,02,13,03,04,4.80
2008,02,13,03,05,4.80
2008,02,13,03,06,4.70
2008,02,13,03,07,4.70
2008,02,13,03,08,4.70
2008,02,13,03,09,4.70
2008,02,13,03,10,4.70
2008,02,13,03,11,4.70
2008,02,13,03,12,4.70
2008,02,13,03,13,4.70
2008,02,13,03,14,4.70
2008,02,13,03,15,4.70
2008,02,13,03,16,4.70
2008,02,13,03,17,4.60
2008,02,13,03,18,4.60
2008,02,13,03,19,4.60
2008,02,13,03,20,4.60
2008,02,13,03,21,4.60
2008,02,13,03,22,4.60
2008,02,13,03,23,4.60
2008,02,13,03,24,4.60
2008,02,13,03,25,4.60
2008,02,13,03,26,4.60
2008,02,13,03,27,4.60
2008,02,13,03,28,4.60
2008,02,13,03,29,4.60
2008,02,13,03,30,4.70
2008,02,13,03,31,4.70
2008,02,13,03,32,4.70
2008,02,13,03,33,4.70
2008,02,13,03,34,4.70
2008,02,13,03,35,4.80
2008,02,13,03,36,4.80
2008,02,13,03,37,4.80
2008,02,13,03,38,4.80
2008,02,13,03,39,4.80
2008,02,13,03,40,4.80
2008,02,13,03,41,4.80
2008,02,13,03,42,4.80
2008,02,13,03,43,4.70
2008,02,13,03,44,4.70
2008,02,13,03,45,4.70
2008,02,13,03,46,4.70
2008,02,13,03,47,4.60
2008,02,13,03,48,4.60
2008,02,13,03,49,4.60
2008,02,13,03,50,4.60
2008,02,13,03,51,4.60
2008,02,13,03,52,4.60
2008,02,13,03,53,4.60
2008,02,13,03,54,4.60
2008,02,13,03,55,4.60
2008,02,13,03,56,4.60
2008,02,13,03,57,4.60
2008,02,13,03,58,4.60
2008,02,13,03,59,4.60
2008,02,13,04,00,4.60
2008,02,13,04,01,4.60
2008,02,13,04,02,4.50
2008,02,13,04,03,4.50
2008,02,13,04,04,4.50
2008,02,13,04,05,4.50
2008,02,13,04,06,4.50
2008,02,13,04,07,4.50
2008,02,13,04,08,4.40
2008,02,13,04,09,4.40
2008,02,13,04,10,4.40
2008,02,13,04,11,4.30
2008,02,13,04,12,4.30
2008,02,13,04,13,4.30
2008,02,13,04,14,4.30
2008,02,13,04,15,4.30
2008,02,13,04,16,4.30
2008,02,13,04,17,4.30
2008,02,13,04,18,4.30
2008,02,13,04,19,4.30
2008,02,13,04,20,4.30
2008,02,13,04,21,4.20
2008,02,13,04,22,4.20
2008,02,13,04,23,4.20
2008,02,13,04,24,4.20
2008,02,13,04,25,4.20
2008,02,13,04,26,4.20
2008,02,13,04,27,4.20
2008,02,13,04,28,4.20
2008,02,13,04,29,4.20
2008,02,13,04,30,4.20
2008,02,13,04,31,4.20
2008,02,13,04,32,4.20
2008,02,13,04,33,4.20
2008,02,13,04,34,4.20
2008,02,13,04,35,4.20
2008,02,13,04,36,4.20
2008,02,13,04,37,4.20
2008,02,13,04,38,4.20
2008,02,13,04,39,4.20
2008,02,13,04,40,4.20
2008,02,13,04,41,4.20
2008,02,13,04,42,4.20
2008,02,13,04,43,4.20
2008,02,13,04,44,4.20
2008,02,13,04,45,4.20
2008,02,13,04,46,4.20
2008,02,13,04,47,4.20
2008,02,13,04,48,4.20
2008,02,13,04,49,4.20
2008,02,13,04,50,4.20
2008,02,13,04,51,4.20
2008,02,13,04,52,4.10
2008,02,13,04,53,4.10
2008,02,13,04,54,4.10
2008,02,13,04,55,4.10
2008,02,13,04,56,4.10
2008,02,13,04,57,4.00
2008,02,13,04,58,4.00
2008,02,13,04,59,4.00
2008,02,13,05,00,4.00
2008,02,13,05,01,3.90
2008,02,13,05,02,3.90
2008,02,13,05,03,3.90
2008,02,13,05,04,3.90
2008,02,13,05,05,3.90
2008,02,13,05,06,3.80
2008,02,13,05,07,3.80
2008,02,13,05,08,3.80
2008,02,13,05,09,3.80
2008,02,13,05,10,3.80
2008,02,13,05,11,3.80
2008,02,13,05,12,3.80
2008,02,13,05,13,3.80
2008,02,13,05,14,3.80
2008,02,13,05,15,3.80
2008,02,13,05,16,3.80
2008,02,13,05,17,3.80
2008,02,13,05,18,3.80
2008,02,13,05,19,3.80
2008,02,13,05,20,3.80
2008,02,13,05,21,3.80
2008,02,13,05,22,3.80
2008,02,13,05,23,3.80
2008,02,13,05,24,3.80
2008,02,13,05,25,3.80
2008,02,13,05,26,3.80
2008,02,13,05,27,3.80
2008,02,13,05,28,3.80
2008,02,13,05,29,3.80
2008,02,13,05,30,3.80
2008,02,13,05,31,3.80
2008,02,13,05,32,3.80
2008,02,13,05,33,3.80
2008,02,13,05,34,3.80
2008,02,13,05,35,3.80
2008,02,13,05,36,3.80
2008,02,13,05,37,3.80
2008,02,13,05,38,3.80
2008,02,13,05,39,3.80
2008,02,13,05,40,3.80
2008,02,13,05,41,3.80
2008,02,13,05,42,3.80
2008,02,13,05,43,3.80
2008,02,13,05,44,3.80
2008,02,13,05,45,3.80
2008,02,13,05,46,3.80
2008,02,13,05,47,3.80
2008,02,13,05,48,3.80
2008,02,13,05,49,3.80
2008,02,13,05,50,3.80
2008,02,13,05,51,3.80
2008,02,13,05,52,3.80
2008,02,13,05,53,3.80
2008,02,13,05,54,3.80
2008,02,13,05,55,3.80
2008,02,13,05,56,3.80
2008,02,13,05,57,3.80
2008,02,13,05,58,3.80
2008,02,13,05,59,3.80
2008,02,13,06,00,3.80
2008,02,13,06,01,3.80
2008,02,13,06,02,3.80
2008,02,13,06,03,3.80
2008,02,13,06,04,3.80
2008,02,13,06,05,3.80
2008,02,13,06,06,3.80
2008,02,13,06,07,3.80
2008,02,13,06,08,3.80
2008,02,13,06,09,3.80
2008,02,13,06,10,3.70
2008,02,13,06,11,3.60
2008,02,13,06,12,3.60
2008,02,13,06,13,3.60
2008,02,13,06,14,3.60
2008,02,13,06,15,3.60
2008,02,13,06,16,3.60
2008,02,13,06,17,3.60
2008,02,13,06,18,3.50
2008,02,13,06,19,3.50
2008,02,13,06,20,3.50
2008,02,13,06,21,3.50
2008,02,13,06,22,3.50
2008,02,13,06,23,3.50
2008,02,13,06,24,3.50
2008,02,13,06,25,3.60
2008,02,13,06,26,3.60
2008,02,13,06,27,3.60
2008,02,13,06,28,3.60
2008,02,13,06,29,3.70
2008,02,13,06,30,3.60
2008,02,13,06,31,3.60
2008,02,13,06,32,3.60
2008,02,13,06,33,3.60
2008,02,13,06,34,3.60
2008,02,13,06,35,3.70
2008,02,13,06,36,3.70
2008,02,13,06,37,3.80
2008,02,13,06,38,3.80
2008,02,13,06,39,3.80
2008,02,13,06,40,3.80
2008,02,13,06,41,3.80
2008,02,13,06,42,3.80
2008,02,13,06,43,3.90
2008,02,13,06,44,3.90
2008,02,13,06,45,3.90
2008,02,13,06,46,4.00
2008,02,13,06,47,4.00
2008,02,13,06,48,4.10
2008,02,13,06,49,4.10
2008,02,13,06,50,4.10
2008,02,13,06,51,4.10
2008,02,13,06,52,4.10
2008,02,13,06,53,4.20
2008,02,13,06,54,4.20
2008,02,13,06,55,4.20
2008,02,13,06,56,4.20
2008,02,13,06,57,4.20
2008,02,13,06,58,4.20
2008,02,13,06,59,4.20
2008,02,13,07,00,4.20
2008,02,13,07,01,4.30
2008,02,13,07,02,4.30
2008,02,13,07,03,4.20
2008,02,13,07,04,4.20
2008,02,13,07,05,4.20
2008,02,13,07,06,4.30
2008,02,13,07,07,4.30
2008,02,13,07,08,4.30
2008,02,13,07,09,4.30
2008,02,13,07,10,4.30
2008,02,13,07,11,4.20
2008,02,13,07,12,4.20
2008,02,13,07,13,4.20
2008,02,13,07,14,4.20
2008,02,13,07,15,4.20
2008,02,13,07,16,4.20
2008,02,13,07,17,4.20
2008,02,13,07,18,4.20
2008,02,13,07,19,4.20
2008,02,13,07,20,4.20
2008,02,13,07,21,4.20
2008,02,13,07,22,4.00
2008,02,13,07,23,4.00
2008,02,13,07,24,4.00
2008,02,13,07,25,3.90
2008,02,13,07,26,3.90
2008,02,13,07,27,3.80
2008,02,13,07,28,3.80
2008,02,13,07,29,3.80
2008,02,13,07,30,3.80
2008,02,13,07,31,3.80
2008,02,13,07,32,3.80
2008,02,13,07,33,3.80
2008,02,13,07,34,3.80
2008,02,13,07,35,3.80
2008,02,13,07,36,3.80
2008,02,13,07,37,3.80
2008,02,13,07,38,3.80
2008,02,13,07,39,3.90
2008,02,13,07,40,3.90
2008,02,13,07,41,4.00
2008,02,13,07,42,4.00
2008,02,13,07,43,4.00
2008,02,13,07,44,4.00
2008,02,13,07,45,4.00
2008,02,13,07,46,4.10
2008,02,13,07,47,4.20
2008,02,13,07,48,4.20
2008,02,13,07,49,4.20
2008,02,13,07,50,4.20
2008,02,13,07,51,4.20
2008,02,13,07,52,4.20
2008,02,13,07,53,4.10
2008,02,13,07,54,4.10
2008,02,13,07,55,4.10
2008,02,13,07,56,4.10
2008,02,13,07,57,4.10
2008,02,13,07,58,4.10
2008,02,13,07,59,4.10
2008,02,13,08,00,4.10
2008,02,13,08,01,4.10
2008,02,13,08,02,4.10
2008,02,13,08,03,4.10
2008,02,13,08,04,4.20
2008,02,13,08,05,4.20
2008,02,13,08,06,4.20
2008,02,13,08,07,4.20
2008,02,13,08,08,4.20
2008,02,13,08,09,4.20
2008,02,13,08,10,4.20
2008,02,13,08,11,4.10
2008,02,13,08,12,4.10
2008,02,13,08,13,4.10
2008,02,13,08,14,4.10
2008,02,13,08,15,4.20
2008,02,13,08,16,4.20
2008,02,13,08,17,4.20
2008,02,13,08,18,4.20
2008,02,13,08,19,4.20
2008,02,13,08,20,4.20
2008,02,13,08,21,4.30
2008,02,13,08,22,4.30
2008,02,13,08,23,4.30
2008,02,13,08,24,4.40
2008,02,13,08,25,4.40
2008,02,13,08,26,4.40
2008,02,13,08,27,4.40
2008,02,13,08,28,4.40
2008,02,13,08,29,4.40
2008,02,13,08,30,4.40
2008,02,13,08,31,4.40
2008,02,13,08,32,4.40
2008,02,13,08,33,4.50
2008,02,13,08,34,4.50
2008,02,13,08,35,4.50
2008,02,13,08,36,4.50
2008,02,13,08,37,4.50
2008,02,13,08,38,4.50
2008,02,13,08,39,4.60
2008,02,13,08,40,4.60
2008,02,13,08,41,4.60
2008,02,13,08,42,4.60
2008,02,13,08,43,4.60
2008,02,13,08,44,4.60
2008,02,13,08,45,4.60
2008,02,13,08,46,4.60
2008,02,13,08,47,4.60
2008,02,13,08,48,4.60
2008,02,13,08,49,4.70
2008,02,13,08,50,4.80
2008,02,13,08,51,4.80
2008,02,13,08,52,4.90
2008,02,13,08,53,4.90
2008,02,13,08,54,4.80
2008,02,13,08,55,4.70
2008,02,13,08,56,4.60
2008,02,13,08,57,4.60
2008,02,13,08,58,4.70
2008,02,13,08,59,4.80
2008,02,13,09,00,4.80
2008,02,13,09,01,4.90
2008,02,13,09,02,4.90
2008,02,13,09,03,4.90
2008,02,13,09,04,4.90
2008,02,13,09,05,4.80
2008,02,13,09,06,4.90
2008,02,13,09,07,4.90
2008,02,13,09,08,4.90
2008,02,13,09,09,4.90
2008,02,13,09,10,4.90
2008,02,13,09,11,4.90
2008,02,13,09,12,4.90
2008,02,13,09,13,4.90
2008,02,13,09,14,4.90
2008,02,13,09,15,5.00
2008,02,13,09,16,5.10
2008,02,13,09,17,5.10
2008,02,13,09,18,5.10
2008,02,13,09,19,5.20
2008,02,13,09,20,5.20
2008,02,13,09,21,5.30
2008,02,13,09,22,5.30
2008,02,13,09,23,5.30
2008,02,13,09,24,5.30
2008,02,13,09,25,5.30
2008,02,13,09,26,5.40
2008,02,13,09,27,5.40
2008,02,13,09,28,5.40
2008,02,13,09,29,5.50
2008,02,13,09,30,5.50
2008,02,13,09,31,5.50
2008,02,13,09,32,5.50
2008,02,13,09,33,5.60
2008,02,13,09,34,5.60
2008,02,13,09,35,5.70
2008,02,13,09,36,5.70
2008,02,13,09,37,5.70
2008,02,13,09,38,5.70
2008,02,13,09,39,5.70
2008,02,13,09,40,5.70
2008,02,13,09,41,5.70
2008,02,13,09,42,5.80
2008,02,13,09,43,5.80
2008,02,13,09,44,5.80
2008,02,13,09,45,5.80
2008,02,13,09,46,5.90
2008,02,13,09,47,5.90
2008,02,13,09,48,5.90
2008,02,13,09,49,5.90
2008,02,13,09,50,5.90
2008,02,13,09,51,5.90
2008,02,13,09,52,6.00
2008,02,13,09,53,6.00
2008,02,13,09,54,6.00
2008,02,13,09,55,6.10
2008,02,13,09,56,6.10
2008,02,13,09,57,6.10
2008,02,13,09,58,6.20
2008,02,13,09,59,6.20
2008,02,13,10,00,6.20
2008,02,13,10,01,6.20
2008,02,13,10,02,6.20
2008,02,13,10,03,6.30
2008,02,13,10,04,6.30
2008,02,13,10,05,6.40
2008,02,13,10,06,6.40
2008,02,13,10,07,6.40
2008,02,13,10,08,6.40
2008,02,13,10,09,6.50
2008,02,13,10,10,6.60
2008,02,13,10,11,6.60
2008,02,13,10,12,6.60
2008,02,13,10,13,6.60
2008,02,13,10,14,6.60
2008,02,13,10,15,6.70
2008,02,13,10,16,6.80
2008,02,13,10,17,6.80
2008,02,13,10,18,6.80
2008,02,13,10,19,6.90
2008,02,13,10,20,6.90
2008,02,13,10,21,7.00
2008,02,13,10,22,7.00
2008,02,13,10,23,7.00
2008,02,13,10,24,7.00
2008,02,13,10,25,7.10
2008,02,13,10,26,7.10
2008,02,13,10,27,7.20
2008,02,13,10,28,7.20
2008,02,13,10,29,7.10
2008,02,13,10,30,7.10
2008,02,13,10,31,7.10
2008,02,13,10,32,7.00
2008,02,13,10,33,7.00
2008,02,13,10,34,7.00
2008,02,13,10,35,7.00
2008,02,13,10,36,7.00
2008,02,13,10,37,7.10
2008,02,13,10,38,7.10
2008,02,13,10,39,7.20
2008,02,13,10,40,7.20
2008,02,13,10,41,7.20
2008,02,13,10,42,7.20
2008,02,13,10,43,7.20
2008,02,13,10,44,7.30
2008,02,13,10,45,7.40
2008,02,13,10,46,7.60
2008,02,13,10,47,7.60
2008,02,13,10,48,7.70
2008,02,13,10,49,7.70
2008,02,13,10,50,7.60
2008,02,13,10,51,7.60
2008,02,13,10,52,7.50
2008,02,13,10,53,7.40
2008,02,13,10,54,7.40
2008,02,13,10,55,7.40
2008,02,13,10,56,7.30
2008,02,13,10,57,7.30
2008,02,13,10,58,7.30
2008,02,13,10,59,7.20
2008,02,13,11,00,7.20
2008,02,13,11,01,7.20
2008,02,13,11,02,7.20
2008,02,13,11,03,7.30
2008,02,13,11,04,7.30
2008,02,13,11,05,7.30
2008,02,13,11,06,7.30
2008,02,13,11,07,7.40
2008,02,13,11,08,7.50
2008,02,13,11,09,7.50
2008,02,13,11,10,7.60
2008,02,13,11,11,7.60
2008,02,13,11,12,7.70
2008,02,13,11,13,7.80
2008,02,13,11,14,7.80
2008,02,13,11,15,7.80
2008,02,13,11,16,7.80
2008,02,13,11,17,7.90
2008,02,13,11,18,7.90
2008,02,13,11,19,7.90
2008,02,13,11,20,7.90
2008,02,13,11,21,7.90
2008,02,13,11,22,7.90
2008,02,13,11,23,7.90
2008,02,13,11,24,7.90
2008,02,13,11,25,7.90
2008,02,13,11,26,7.90
2008,02,13,11,27,8.00
2008,02,13,11,28,8.00
2008,02,13,11,29,8.00
2008,02,13,11,30,8.00
2008,02,13,11,31,8.00
2008,02,13,11,32,8.00
2008,02,13,11,33,8.00
2008,02,13,11,34,8.00
2008,02,13,11,35,7.90
2008,02,13,11,36,7.80
2008,02,13,11,37,7.80
2008,02,13,11,38,7.80
2008,02,13,11,39,7.90
2008,02,13,11,40,7.90
2008,02,13,11,41,7.80
2008,02,13,11,42,7.80
2008,02,13,11,43,7.90
2008,02,13,11,44,7.90
2008,02,13,11,45,7.90
2008,02,13,11,46,7.90
2008,02,13,11,47,7.90
2008,02,13,11,48,8.00
2008,02,13,11,49,8.00
2008,02,13,11,50,8.00
2008,02,13,11,51,8.10
2008,02,13,11,52,8.20
2008,02,13,11,53,8.20
2008,02,13,11,54,8.30
2008,02,13,11,55,8.40
2008,02,13,11,56,8.40
2008,02,13,11,57,8.50
2008,02,13,11,58,8.60
2008,02,13,11,59,8.60
2008,02,13,12,00,8.60
2008,02,13,12,01,8.50
2008,02,13,12,02,8.50
2008,02,13,12,03,8.40
2008,02,13,12,04,8.30
2008,02,13,12,05,8.30
2008,02,13,12,06,8.20
2008,02,13,12,07,8.20
2008,02,13,12,08,8.20
2008,02,13,12,09,8.20
2008,02,13,12,10,8.20
2008,02,13,12,11,8.20
2008,02,13,12,12,8.20
2008,02,13,12,13,8.20
2008,02,13,12,14,8.20
2008,02,13,12,15,8.30
2008,02,13,12,16,8.30
2008,02,13,12,17,8.30
2008,02,13,12,18,8.30
2008,02,13,12,19,8.30
2008,02,13,12,20,8.30
2008,02,13,12,21,8.30
2008,02,13,12,22,8.30
2008,02,13,12,23,8.20
2008,02,13,12,24,8.20
2008,02,13,12,25,8.30
2008,02,13,12,26,8.30
2008,02,13,12,27,8.30
2008,02,13,12,28,8.20
2008,02,13,12,29,8.20
2008,02,13,12,30,8.20
2008,02,13,12,31,8.20
2008,02,13,12,32,8.20
2008,02,13,12,33,8.20
2008,02,13,12,34,8.20
2008,02,13,12,35,8.20
2008,02,13,12,36,8.20
2008,02,13,12,37,8.20
2008,02,13,12,38,8.20
2008,02,13,12,39,8.20
2008,02,13,12,40,8.20
2008,02,13,12,41,8.20
2008,02,13,12,42,8.20
2008,02,13,12,43,8.20
2008,02,13,12,44,8.10
2008,02,13,12,45,8.10
2008,02,13,12,46,8.10
2008,02,13,12,47,8.00
2008,02,13,12,48,8.00
2008,02,13,12,49,8.10
2008,02,13,12,50,8.10
2008,02,13,12,51,8.20
2008,02,13,12,52,8.20
2008,02,13,12,53,8.30
2008,02,13,12,54,8.40
2008,02,13,12,55,8.40
2008,02,13,12,56,8.50
2008,02,13,12,57,8.40
2008,02,13,12,58,8.40
2008,02,13,12,59,8.30
2008,02,13,13,00,8.30
2008,02,13,13,01,8.40
2008,02,13,13,02,8.40
2008,02,13,13,03,8.40
2008,02,13,13,04,8.40
2008,02,13,13,05,8.40
2008,02,13,13,06,8.40
2008,02,13,13,07,8.40
2008,02,13,13,08,8.20
2008,02,13,13,09,8.20
2008,02,13,13,10,8.20
2008,02,13,13,11,8.20
2008,02,13,13,12,8.30
2008,02,13,13,13,8.30
2008,02,13,13,14,8.40
2008,02,13,13,15,8.40
2008,02,13,13,16,8.40
2008,02,13,13,17,8.40
2008,02,13,13,18,8.40
2008,02,13,13,19,8.40
2008,02,13,13,20,8.30
2008,02,13,13,21,8.20
2008,02,13,13,22,8.30
2008,02,13,13,23,8.30
2008,02,13,13,24,8.30
2008,02,13,13,25,8.40
2008,02,13,13,26,8.40
2008,02,13,13,27,8.40
2008,02,13,13,28,8.40
2008,02,13,13,29,8.40
2008,02,13,13,30,8.40
2008,02,13,13,31,8.40
2008,02,13,13,32,8.40
2008,02,13,13,33,8.40
2008,02,13,13,34,8.40
2008,02,13,13,35,8.40
2008,02,13,13,36,8.50
2008,02,13,13,37,8.60
2008,02,13,13,38,8.70
2008,02,13,13,39,8.70
2008,02,13,13,40,8.80
2008,02,13,13,41,8.90
2008,02,13,13,42,9.00
2008,02,13,13,43,9.00
2008,02,13,13,44,9.10
2008,02,13,13,45,9.20
2008,02,13,13,46,9.20
2008,02,13,13,47,9.20
2008,02,13,13,48,9.20
2008,02,13,13,49,9.30
2008,02,13,13,50,9.20
2008,02,13,13,51,9.20
2008,02,13,13,52,9.20
2008,02,13,13,53,9.20
2008,02,13,13,54,9.10
2008,02,13,13,55,9.00
2008,02,13,13,56,8.90
2008,02,13,13,57,8.90
2008,02,13,13,58,8.80
2008,02,13,13,59,8.90
2008,02,13,14,00,8.90
2008,02,13,14,01,9.00
2008,02,13,14,02,9.00
2008,02,13,14,03,9.00
2008,02,13,14,04,9.00
2008,02,13,14,05,9.00
2008,02,13,14,06,8.90
2008,02,13,14,07,8.90
2008,02,13,14,08,8.70
2008,02,13,14,09,8.70
2008,02,13,14,10,8.50
2008,02,13,14,11,8.40
2008,02,13,14,12,8.40
2008,02,13,14,13,8.40
2008,02,13,14,14,8.30
2008,02,13,14,15,8.30
2008,02,13,14,16,8.30
2008,02,13,14,17,8.30
2008,02,13,14,18,8.30
2008,02,13,14,19,8.30
2008,02,13,14,20,8.20
2008,02,13,14,21,8.20
2008,02,13,14,22,8.20
2008,02,13,14,23,8.20
2008,02,13,14,24,8.20
2008,02,13,14,25,8.10
2008,02,13,14,26,8.10
2008,02,13,14,27,8.00
2008,02,13,14,28,8.00
2008,02,13,14,29,8.00
2008,02,13,14,30,8.00
2008,02,13,14,31,8.00
2008,02,13,14,32,8.00
2008,02,13,14,33,8.00
2008,02,13,14,34,8.00
2008,02,13,14,35,7.90
2008,02,13,14,36,7.90
2008,02,13,14,37,8.00
2008,02,13,14,38,8.10
2008,02,13,14,39,8.20
2008,02,13,14,40,8.20
2008,02,13,14,41,8.30
2008,02,13,14,42,8.30
2008,02,13,14,43,8.40
2008,02,13,14,44,8.40
2008,02,13,14,45,8.40
2008,02,13,14,46,8.40
2008,02,13,14,47,8.30
2008,02,13,14,48,8.20
2008,02,13,14,49,8.20
2008,02,13,14,50,8.10
2008,02,13,14,51,8.00
2008,02,13,14,52,8.00
2008,02,13,14,53,8.00
2008,02,13,14,54,8.00
2008,02,13,14,55,8.10
2008,02,13,14,56,8.00
2008,02,13,14,57,8.00
2008,02,13,14,58,7.90
2008,02,13,14,59,7.90
2008,02,13,15,00,7.80
2008,02,13,15,01,7.80
2008,02,13,15,02,7.80
2008,02,13,15,03,7.80
2008,02,13,15,04,7.90
2008,02,13,15,05,7.90
2008,02,13,15,06,7.90
2008,02,13,15,07,7.90
2008,02,13,15,08,8.00
2008,02,13,15,09,8.00
2008,02,13,15,10,8.00
2008,02,13,15,11,8.10
2008,02,13,15,12,8.10
2008,02,13,15,13,8.10
2008,02,13,15,14,8.10
2008,02,13,15,15,8.10
2008,02,13,15,16,8.10
2008,02,13,15,17,8.10
2008,02,13,15,18,8.00
2008,02,13,15,19,8.00
2008,02,13,15,20,8.00
2008,02,13,15,21,8.00
2008,02,13,15,22,8.00
2008,02,13,15,23,8.00
2008,02,13,15,24,8.00
2008,02,13,15,25,8.00
2008,02,13,15,26,8.00
2008,02,13,15,27,8.00
2008,02,13,15,28,8.00
2008,02,13,15,29,8.00
2008,02,13,15,30,8.00
2008,02,13,15,31,8.00
2008,02,13,15,32,8.00
2008,02,13,15,33,8.00
2008,02,13,15,34,8.00
2008,02,13,15,35,8.10
2008,02,13,15,36,8.10
2008,02,13,15,37,8.10
2008,02,13,15,38,8.10
2008,02,13,15,39,8.10
2008,02,13,15,40,8.10
2008,02,13,15,41,8.10
2008,02,13,15,42,8.10
2008,02,13,15,43,8.10
2008,02,13,15,44,8.10
2008,02,13,15,45,8.10
2008,02,13,15,46,8.10
2008,02,13,15,47,8.10
2008,02,13,15,48,8.10
2008,02,13,15,49,8.10
2008,02,13,15,50,8.00
2008,02,13,15,51,8.00
2008,02,13,15,52,8.00
2008,02,13,15,53,8.00
2008,02,13,15,54,8.00
2008,02,13,15,55,7.90
2008,02,13,15,56,7.90
2008,02,13,15,57,7.90
2008,02,13,15,58,7.90
2008,02,13,15,59,7.90
2008,02,13,16,00,7.90
2008,02,13,16,01,7.90
2008,02,13,16,02,7.90
2008,02,13,16,03,7.90
2008,02,13,16,04,7.90
2008,02,13,16,05,7.90
2008,02,13,16,06,7.90
2008,02,13,16,07,7.90
2008,02,13,16,08,7.90
2008,02,13,16,09,7.90
2008,02,13,16,10,7.90
2008,02,13,16,11,7.90
2008,02,13,16,12,7.90
2008,02,13,16,13,7.90
2008,02,13,16,14,7.80
2008,02,13,16,15,7.80
2008,02,13,16,16,7.80
2008,02,13,16,17,7.80
2008,02,13,16,18,7.80
2008,02,13,16,19,7.80
2008,02,13,16,20,7.80
2008,02,13,16,21,7.80
2008,02,13,16,22,7.80
2008,02,13,16,23,7.80
2008,02,13,16,24,7.80
2008,02,13,16,25,7.80
2008,02,13,16,26,7.70
2008,02,13,16,27,7.70
2008,02,13,16,28,7.70
2008,02,13,16,29,7.70
2008,02,13,16,30,7.70
2008,02,13,16,31,7.70
2008,02,13,16,32,7.70
2008,02,13,16,33,7.70
2008,02,13,16,34,7.70
2008,02,13,16,35,7.70
2008,02,13,16,36,7.70
2008,02,13,16,37,7.70
2008,02,13,16,38,7.70
2008,02,13,16,39,7.70
2008,02,13,16,40,7.60
2008,02,13,16,41,7.60
2008,02,13,16,42,7.50
2008,02,13,16,43,7.50
2008,02,13,16,44,7.50
2008,02,13,16,45,7.40
2008,02,13,16,46,7.40
2008,02,13,16,47,7.40
2008,02,13,16,48,7.30
2008,02,13,16,49,7.30
2008,02,13,16,50,7.30
2008,02,13,16,51,7.30
2008,02,13,16,52,7.30
2008,02,13,16,53,7.30
2008,02,13,16,54,7.30
2008,02,13,16,55,7.20
2008,02,13,16,56,7.20
2008,02,13,16,57,7.20
2008,02,13,16,58,7.20
2008,02,13,16,59,7.20
2008,02,13,17,00,7.20
2008,02,13,17,01,7.20
2008,02,13,17,02,7.20
2008,02,13,17,03,7.20
2008,02,13,17,04,7.10
2008,02,13,17,05,7.10
2008,02,13,17,06,7.10
2008,02,13,17,07,7.00
2008,02,13,17,08,7.00
2008,02,13,17,09,7.00
2008,02,13,17,10,7.00
2008,02,13,17,11,7.00
2008,02,13,17,12,7.00
2008,02,13,17,13,7.00
2008,02,13,17,14,6.90
2008,02,13,17,15,6.90
2008,02,13,17,16,6.90
2008,02,13,17,17,6.80
2008,02,13,17,18,6.80
2008,02,13,17,19,6.80
2008,02,13,17,20,6.80
2008,02,13,17,21,6.80
2008,02,13,17,22,6.80
2008,02,13,17,23,6.80
2008,02,13,17,24,6.80
2008,02,13,17,25,6.80
2008,02,13,17,26,6.80
2008,02,13,17,27,6.70
2008,02,13,17,28,6.70
2008,02,13,17,29,6.70
2008,02,13,17,30,6.70
2008,02,13,17,31,6.70
2008,02,13,17,32,6.60
2008,02,13,17,33,6.60
2008,02,13,17,34,6.60
2008,02,13,17,35,6.60
2008,02,13,17,36,6.50
2008,02,13,17,37,6.40
2008,02,13,17,38,6.40
2008,02,13,17,39,6.40
2008,02,13,17,40,6.40
2008,02,13,17,41,6.30
2008,02,13,17,42,6.30
2008,02,13,17,43,6.30
2008,02,13,17,44,6.30
2008,02,13,17,45,6.30
2008,02,13,17,46,6.20
2008,02,13,17,47,6.10
2008,02,13,17,48,6.10
2008,02,13,17,49,6.00
2008,02,13,17,50,5.90
2008,02,13,17,51,5.90
2008,02,13,17,52,5.80
2008,02,13,17,53,5.70
2008,02,13,17,54,5.70
2008,02,13,17,55,5.60
2008,02,13,17,56,5.50
2008,02,13,17,57,5.50
2008,02,13,17,58,5.40
2008,02,13,17,59,5.30
2008,02,13,18,00,5.30
2008,02,13,18,01,5.30
2008,02,13,18,02,5.30
2008,02,13,18,03,5.20
2008,02,13,18,04,5.20
2008,02,13,18,05,5.10
2008,02,13,18,06,5.10